This demonstration page uses our WeatherBlox Daily Observations layout. Learn more.

Left ArrowRight Arrow

30.21309, -93.2044

Hourly Observations for December 3, 2022

Temp ( °F °C ) Dew Point ( °F °C ) Humidity (%) Winds ( mph kmh ) Pressure ( in mb ) Visibility ( mi km ) Precip ( " mm )
12:15 am 00:15 Cloudy with Fog 70 20.9 68 20.2 96 96 S 8 13 30.21 1023 1 1 0.00 0.00
12:35 am 00:35 Cloudy with Fog 70 20.9 68 20.2 96 96 S 8 13 30.20 1023 1 1 0.00 0.00
12:55 am 00:55 Cloudy with Fog 70 21 69 20.3 96 96 S 6 9 30.20 1023 1 1 0.00 0.00
1:15 am 01:15 Cloudy with Fog 70 21.1 69 20.4 96 96 S 6 9 30.21 1023 1 1 0.00 0.00
1:35 am 01:35 Cloudy with Fog 70 21.1 69 20.4 96 96 S 8 13 30.21 1023 1 1 0.00 0.00
1:55 am 01:55 Cloudy with Fog 70 21 69 20.3 96 96 SSW 6 9 30.21 1023 1 1 0.00 0.00
2:15 am 02:15 Cloudy with Fog 70 21 69 20.3 96 96 SSW 5 7 30.21 1023 1 1 0.00 0.00
2:35 am 02:35 Cloudy with Fog 70 21.1 69 20.4 96 96 SSW 5 7 30.22 1023 1 1 0.00 0.00
2:55 am 02:55 Cloudy with Mist and Fog 70 21.2 69 20.5 96 96 S 7 11 30.22 1023 1 1 0.00 0.00
3:15 am 03:15 Cloudy with Fog 70 21 69 20.3 96 96 SSW 5 7 30.22 1023 1 1 0.00 0.00
3:35 am 03:35 Cloudy with Fog 70 21.1 69 20.4 96 96 SSW 3 6 30.23 1024 1 1 0.00 0.00
3:55 am 03:55 Cloudy with Fog 70 21 69 20.3 96 96 Calm 30.24 1024 1 1 0.00 0.00
4:15 am 04:15 Cloudy with Fog 70 21 69 20.3 96 96 SSW 5 7 30.24 1024 0 0 0.00 0.00
4:35 am 04:35 Cloudy with Fog 70 20.9 68 20.2 96 96 S 6 9 30.22 1023 1 1 0.00 0.00
4:55 am 04:55 Cloudy with Fog 70 21 69 20.3 96 96 S 3 6 30.23 1024 1 1 0.00 0.00
5:15 am 05:15 Cloudy with Fog 70 20.9 69 20.3 96 96 SW 5 7 30.24 1024 0 0 0.00 0.00
5:35 am 05:35 Cloudy with Fog 70 20.9 68 20.2 96 96 SSW 5 7 30.25 1024 0 0 0.01 0.25
6:00 am 06:00 Cloudy 70 21 68 20 94 94 SW 5 7 30.25 1024 N/A 0.00 0.00
6:46 am 06:46 Cloudy 70 21 68 20 94 94 WSW 6 9 30.28 1025 N/A 0.00 0.00
7:48 am 07:48 Cloudy 70 21 68 20 94 94 SW 5 7 30.29 1026 N/A 0.00 0.00
8:26 am 08:26 Cloudy with Mist and Fog 70 21 70 21 100 100 W 5 7 30.31 1026 N/A 0.00 0.00
8:55 am 08:55 Cloudy with Mist and Fog 72 22 70 21 94 94 undefined N/A 30.32 1027 N/A 0.00 0.00
9:45 am 09:45 Cloudy with Mist and Fog 72 22 70 21 94 94 NW 6 9 30.33 1027 4 6 0.00 0.00
10:47 am 10:47 Mostly Cloudy 73 23 70 21 89 89 W 3 6 30.32 1027 5 8 0.00 0.00
11:56 am 11:56 Mostly Cloudy 75 24 70 21 83 83 W 6 9 30.30 1026 10 16 0.00 0.00
12:50 pm 12:50 Mostly Cloudy 79 26 68 20 70 70 N 8 13 30.27 1025 10 16 0.00 0.00
1:49 pm 13:49 Mostly Cloudy 79 26 68 20 70 70 NNW 8 13 30.25 1024 10 16 0.00 0.00
2:50 pm 14:50 Partly Cloudy 81 27 66 19 62 62 Calm 30.24 1024 10 16 0.00 0.00
3:55 pm 15:55 Partly Cloudy 81 27 66 19 62 62 Calm 30.24 1024 10 16 0.00 0.00
4:45 pm 16:45 Partly Cloudy 79 26 66 19 65 65 Calm 30.24 1024 10 16 0.00 0.00
5:55 pm 17:55 Mostly Cloudy 72 22 66 19 83 83 Calm 30.26 1025 10 16 0.00 0.00
6:45 pm 18:45 Mostly Cloudy 73 23 66 19 78 78 Calm 30.27 1025 10 16 0.00 0.00
8:54 pm 20:54 Clear 72 22 64 18 78 78 Calm 30.29 1026 10 16 0.00 0.00
9:49 pm 21:49 Partly Cloudy 70 21 64 18 83 83 NE 3 6 30.29 1026 10 16 0.00 0.00
10:15 pm 22:15 Partly Cloudy 68 20.2 64 18 87 87 NE 6 9 30.29 1026 10 16 0.00 0.00
10:35 pm 22:35 Clear 68 20.1 64 18 88 88 ENE 6 9 30.29 1026 10 16 0.00 0.00
10:55 pm 22:55 Clear 68 19.8 64 17.8 88 88 ENE 6 9 30.29 1026 10 16 0.00 0.00
11:15 pm 23:15 Clear 67 19.5 64 17.7 89 89 NE 7 11 30.29 1026 10 16 0.00 0.00
11:35 pm 23:35 Clear 67 19.2 63 17.4 89 89 NE 7 11 30.29 1026 10 16 0.00 0.00
11:55 pm 23:55 Mostly Cloudy 66 19.1 63 17.2 89 89 ENE 8 13 30.28 1025 10 16 0.00 0.00

Powered by AerisWeather